Date String (YYYY-MM-DD hh:mm:ss) UTC,Instrument flags,Ambient pressure (hPa),Sample flow (lpm),Bypass flow (lpm),Sample temperature (°C),Ambient temperature (°C),ASC tube jacket temperature (°C),LED temperature (°C),Box temperature (°C),Sample RH (%),Span deviation,Mass concentration (μg/m³),Mass concentration (μg/m³),Mass concentration (μg/m³)
DateTimeUTC,F1_M11,P_M11,Q1_M11,Q2_M11,T1_M11,T2_M11,T3_M11,T4_M11,T5_M11,U1_M11,ZSPAN_M11,X2_M11,X0_M11,X1_M11
2022-11-16 06:00:00,,0833.2,5.00,0.00,21.9,20.7,00.0,30.8,23.6,06.7,0000.0,0001.74,0002.59,0001.58
2022-11-16 06:01:00,,0833.2,5.00,0.00,21.9,20.5,00.0,30.8,23.5,06.8,0000.0,0001.74,0002.57,0001.59
2022-11-16 06:02:00,,0833.1,4.99,0.00,21.8,20.4,00.0,30.8,23.5,06.8,0000.0,0001.76,0002.58,0001.61
2022-11-16 06:03:00,,0833.2,4.99,0.00,21.8,20.3,00.0,30.8,23.5,06.8,0000.0,0001.77,0002.61,0001.61
2022-11-16 06:04:00,,0833.2,4.99,0.00,21.8,20.2,00.0,30.8,23.4,06.8,0000.0,0001.78,0002.64,0001.61
2022-11-16 06:05:00,,0833.2,5.02,0.00,21.8,20.5,00.0,30.7,23.5,06.8,0000.0,0001.81,0002.72,0001.62
2022-11-16 06:06:00,,0833.2,5.00,0.00,21.9,21.5,00.0,30.7,23.7,06.9,0000.0,0001.82,0002.74,0001.63
2022-11-16 06:07:00,,0833.2,4.99,0.00,22.0,22.4,00.0,30.7,24.0,06.8,0000.0,0001.83,0002.76,0001.64
2022-11-16 06:08:00,,0833.2,4.99,0.00,22.1,22.3,00.0,30.7,24.1,06.8,0000.0,0001.81,0003.32,0001.64
2022-11-16 06:09:00,,0833.2,5.00,0.00,22.1,21.8,00.0,30.8,24.0,06.8,0000.0,0001.79,0003.99,0001.65
2022-11-16 06:10:00,,0833.2,5.00,0.00,22.0,21.4,00.0,30.8,23.9,06.8,0000.0,0001.77,0003.75,0001.65
2022-11-16 06:11:00,,0833.2,5.00,0.00,22.0,21.1,00.0,30.9,23.8,06.7,0000.0,0001.80,0003.73,0001.67
2022-11-16 06:12:00,,0833.2,5.00,0.00,22.0,20.8,00.0,30.9,23.7,06.6,0000.0,0001.83,0003.82,0001.68
2022-11-16 06:13:00,,0833.2,5.00,0.00,21.9,20.6,00.0,30.9,23.7,06.6,0000.0,0001.84,0003.86,0001.67
2022-11-16 06:14:00,,0833.1,5.01,0.00,21.9,20.4,00.0,30.9,23.6,06.5,0000.0,0001.87,0003.92,0001.69
2022-11-16 06:15:00,,0833.1,5.01,0.00,21.9,20.3,00.0,30.8,23.6,06.5,0000.0,0001.88,0003.95,0001.69
2022-11-16 06:16:00,,0833.1,5.00,0.00,21.8,20.2,00.0,30.8,23.5,06.5,0000.0,0001.89,0003.95,0001.71
2022-11-16 06:17:00,,0833.1,5.00,0.00,21.8,20.1,00.0,30.8,23.5,06.5,0000.0,0001.88,0003.93,0001.70
2022-11-16 06:18:00,,0833.1,5.00,0.00,21.8,20.1,00.0,30.8,23.4,06.5,0000.0,0001.87,0003.90,0001.69
2022-11-16 06:19:00,,0833.1,5.01,0.00,21.8,20.6,00.0,30.7,23.5,06.4,0000.0,0001.87,0003.23,0001.69
2022-11-16 06:20:00,,0833.1,5.01,0.00,21.9,21.6,00.0,30.7,23.8,06.3,0000.0,0001.86,0002.56,0001.68
2022-11-16 06:21:00,,0833.2,5.00,0.00,22.0,21.9,00.0,30.7,23.9,06.3,0000.0,0001.87,0002.58,0001.68
2022-11-16 06:22:00,,0833.1,4.98,0.00,22.0,21.5,00.0,30.8,23.9,06.3,0000.0,0001.85,0002.49,0001.68
2022-11-16 06:23:00,,0833.1,5.00,0.00,22.0,21.2,00.0,30.8,23.8,06.3,0000.0,0001.84,0002.44,0001.69
2022-11-16 06:24:00,,0833.1,5.01,0.00,21.9,20.9,00.0,30.8,23.7,06.3,0000.0,0001.82,0002.39,0001.69
2022-11-16 06:25:00,,0833.1,5.00,0.00,21.9,20.6,00.0,30.8,23.7,06.3,0000.0,0001.78,0002.30,0001.67
2022-11-16 06:26:00,,0833.1,4.99,0.00,21.9,20.4,00.0,30.8,23.6,06.3,0000.0,0001.76,0002.25,0001.66
2022-11-16 06:27:00,,0833.1,4.99,0.00,21.8,20.3,00.0,30.8,23.5,06.4,0000.0,0001.73,0002.19,0001.63
2022-11-16 06:28:00,,0833.0,5.00,0.00,21.8,20.2,00.0,30.8,23.5,06.3,0000.0,0001.73,0002.18,0001.63
2022-11-16 06:29:00,,0833.1,5.02,0.00,21.8,20.2,00.0,30.8,23.5,06.3,0000.0,0001.75,0002.26,0001.64
2022-11-16 06:30:00,,0833.1,5.00,0.00,21.8,20.4,00.0,30.7,23.5,06.3,0000.0,0001.76,0002.27,0001.65
2022-11-16 06:31:00,,0833.1,5.00,0.00,21.8,21.5,00.0,30.7,23.7,06.3,0000.0,0001.77,0002.27,0001.66
2022-11-16 06:32:00,,0833.1,5.00,0.00,22.0,22.0,00.0,30.7,23.9,06.3,0000.0,0001.76,0002.29,0001.65
2022-11-16 06:33:00,,0833.1,4.98,0.00,22.0,21.7,00.0,30.7,23.9,06.3,0000.0,0001.78,0002.41,0001.65
2022-11-16 06:34:00,,0833.1,5.00,0.00,22.0,21.3,00.0,30.8,23.8,06.2,0000.0,0001.79,0002.46,0001.64
2022-11-16 06:35:00,,0833.0,5.01,0.00,21.9,21.0,00.0,30.8,23.7,06.2,0000.0,0001.79,0002.48,0001.63
2022-11-16 06:36:00,,0833.1,5.00,0.00,21.9,20.8,00.0,30.8,23.7,06.2,0000.0,0001.79,0002.95,0001.64
2022-11-16 06:37:00,,0833.1,5.00,0.00,21.9,20.6,00.0,30.8,23.6,06.2,0000.0,0001.81,0003.68,0001.65
2022-11-16 06:38:00,,0833.1,5.00,0.00,21.8,20.5,00.0,30.8,23.6,06.3,0000.0,0001.81,0003.67,0001.66
2022-11-16 06:39:00,,0833.1,5.00,0.00,21.8,20.3,00.0,30.8,23.5,06.2,0000.0,0001.83,0003.70,0001.68
2022-11-16 06:40:00,,0833.2,5.00,0.00,21.8,20.2,00.0,30.8,23.5,06.3,0000.0,0001.83,0003.67,0001.68
2022-11-16 06:41:00,,0833.1,4.99,0.00,21.7,20.0,00.0,30.8,23.4,06.7,0000.0,0001.84,0003.67,0001.67
2022-11-16 06:42:00,,0833.1,5.00,0.00,21.7,20.5,00.0,30.7,23.4,06.5,0000.0,0001.83,0003.70,0001.65
2022-11-16 06:43:00,,0833.1,5.00,0.00,21.8,21.5,00.0,30.7,23.7,06.4,0000.0,0001.82,0003.65,0001.65
2022-11-16 06:44:00,,0833.1,4.98,0.00,21.9,21.9,00.0,30.7,23.9,06.3,0000.0,0001.80,0003.52,0001.65
2022-11-16 06:45:00,,0833.1,5.00,0.00,21.9,21.5,00.0,30.7,23.8,06.3,0000.0,0001.78,0003.44,0001.65
2022-11-16 06:46:00,,0833.1,5.00,0.00,21.9,21.1,00.0,30.8,23.7,06.3,0000.0,0001.79,0003.42,0001.66
2022-11-16 06:47:00,,0833.1,4.99,0.00,21.9,20.9,00.0,30.8,23.7,06.3,0000.0,0001.79,0003.12,0001.66
2022-11-16 06:48:00,,0833.1,5.00,0.00,21.8,20.7,00.0,30.8,23.6,06.3,0000.0,0001.79,0002.26,0001.67
2022-11-16 06:49:00,,0833.1,5.00,0.00,21.8,20.5,00.0,30.8,23.5,06.3,0000.0,0001.79,0002.28,0001.67
2022-11-16 06:50:00,,0833.1,5.00,0.00,21.8,20.3,00.0,30.8,23.5,06.2,0000.0,0001.79,0002.29,0001.66
2022-11-16 06:51:00,,0833.1,5.00,0.00,21.8,20.2,00.0,30.8,23.4,06.3,0000.0,0001.77,0002.26,0001.65
2022-11-16 06:52:00,,0833.1,5.01,0.00,21.7,20.2,00.0,30.7,23.4,06.2,0000.0,0001.76,0002.28,0001.65
2022-11-16 06:53:00,,0833.0,5.01,0.00,21.7,20.2,00.0,30.7,23.4,06.1,0000.0,0001.74,0002.22,0001.64
2022-11-16 06:54:00,,0833.1,5.00,0.00,21.8,21.0,00.0,30.7,23.6,06.1,0000.0,0001.72,0002.17,0001.63
2022-11-16 06:55:00,,0833.0,5.00,0.00,21.9,21.9,00.0,30.6,23.8,06.0,0000.0,0001.70,0002.16,0001.62
2022-11-16 06:56:00,,0833.0,4.98,0.00,21.9,21.9,00.0,30.7,23.9,06.0,0000.0,0001.68,0002.15,0001.59
2022-11-16 06:57:00,,0833.1,5.00,0.00,21.9,21.4,00.0,30.7,23.8,05.9,0000.0,0001.65,0002.11,0001.58
2022-11-16 06:58:00,,0833.1,5.00,0.00,21.9,20.9,00.0,30.8,23.7,06.0,0000.0,0001.64,0002.09,0001.56
2022-11-16 06:59:00,,0833.1,5.01,0.00,21.8,20.4,00.0,30.8,23.5,06.1,0000.0,0001.62,0002.06,0001.55
